Location: Four Corners
(38.2757°N, 122.4608°W)
Time: 15:57:48
(UTC+00:00)

Cosmos 304 Rocket - Pass Details

Date: 08 December 2019
Orbit: 679 x 688 km, 74.0° (Epoch: 27 January)

Event Time Altitude Azimuth Distance (km) Brightness Sun altitude
Rises 01:27:20 0° 342° (NNW) 3,053 7.1 -7.5°
Reaches altitude 10° 01:29:39 10° 343° (NNW) 2,135 6.3 -8.0°
Maximum altitude 01:34:28 82° 72° (ENE) 696 3.7 -8.8°
Drops below altitude 10° 01:39:15 10° 160° (SSE) 2,126 6.3 -9.7°
Sets 01:41:33 0° 161° (SSE) 3,039 7.1 -10.1°
